• în România
  • Lista ţărilor
  • Pe 7 zile
  • Temperatura apei
  • Hartă satelitară
  • Meteo pe hartă
  • Widget-uri
  • user-avatar
    Intrare

    Meteo pe oră la Yelsk

    Astăzi, 15 Decembrie, Vineri

    Timp Temperatura Precipitaţii Vânt Presiune Umiditate
    00:00 -1°C° 0 mm 4 m/s 738 mmHg 90%
    01:00 0°C° 0 mm 3 m/s 739 mmHg 90%
    02:00 -2°C° 0 mm 2 m/s 738 mmHg 94%
    03:00 -2°C° 0 mm 2 m/s 739 mmHg 94%
    04:00 -2°C° 0 mm 2 m/s 739 mmHg 93%
    05:00 -2°C° 0 mm 2 m/s 739 mmHg 93%
    06:00 -2°C° 0 mm 2 m/s 739 mmHg 92%
    07:00 -2°C° 0 mm 2 m/s 740 mmHg 91%
    08:00 -2°C° 0 mm 2 m/s 740 mmHg 90%
    09:00 -1°C° 0 mm 2 m/s 740 mmHg 87%
    10:00 0°C° 0 mm 3 m/s 740 mmHg 84%
    11:00 +1°C° 0 mm 3 m/s 740 mmHg 81%
    12:00 +1°C° 0 mm 3 m/s 740 mmHg 81%
    13:00 0°C° 0 mm 4 m/s 740 mmHg 82%
    14:00 +1°C° 0 mm 4 m/s 740 mmHg 82%
    15:00 0°C° 0 mm 4 m/s 739 mmHg 85%
    16:00 0°C° 0 mm 4 m/s 739 mmHg 88%
    17:00 0°C° 0 mm 5 m/s 739 mmHg 91%
    18:00 0°C° 0,2 mm 5 m/s 739 mmHg 91%
    19:00 0°C° 0,2 mm 5 m/s 738 mmHg 92%
    20:00 0°C° 0,2 mm 5 m/s 738 mmHg 92%
    21:00 +1°C° 0,1 mm 5 m/s 738 mmHg 93%
    22:00 +1°C° 0,1 mm 4 m/s 738 mmHg 93%
    23:00 +1°C° 0,1 mm 4 m/s 738 mmHg 93%

    Mâine, 16 Decembrie, Sâmbătă

    Timp Temperatura Precipitaţii Vânt Presiune Umiditate
    00:00 0°C° 0 mm 4 m/s 738 mmHg 93%
    01:00 +1°C° 0 mm 3 m/s 738 mmHg 93%
    02:00 +2°C° 0 mm 2 m/s 738 mmHg 93%
    03:00 +2°C° 0,1 mm 2 m/s 738 mmHg 94%
    04:00 +1°C° 0,1 mm 3 m/s 737 mmHg 94%
    05:00 +1°C° 0,1 mm 3 m/s 737 mmHg 95%
    06:00 +1°C° 1,3 mm 3 m/s 736 mmHg 95%
    07:00 +1°C° 1,3 mm 3 m/s 736 mmHg 96%
    08:00 +1°C° 1,3 mm 3 m/s 735 mmHg 96%
    09:00 +2°C° 0,8 mm 3 m/s 734 mmHg 95%
    10:00 +1°C° 0,8 mm 4 m/s 734 mmHg 95%
    11:00 +3°C° 0,8 mm 4 m/s 733 mmHg 94%
    12:00 +4°C° 0,2 mm 4 m/s 732 mmHg 93%
    13:00 +5°C° 0,2 mm 5 m/s 731 mmHg 91%
    14:00 +5°C° 0,2 mm 5 m/s 731 mmHg 90%
    15:00 +5°C° 0 mm 5 m/s 731 mmHg 88%
    16:00 +6°C° 0 mm 5 m/s 731 mmHg 86%
    17:00 +6°C° 0 mm 5 m/s 731 mmHg 84%
    18:00 +4°C° 0 mm 6 m/s 732 mmHg 83%
    19:00 +3°C° 0 mm 6 m/s 733 mmHg 83%
    20:00 +2°C° 0 mm 6 m/s 734 mmHg 82%
    21:00 +1°C° 0 mm 6 m/s 735 mmHg 82%
    22:00 +1°C° 0 mm 6 m/s 737 mmHg 83%
    23:00 0°C° 0 mm 5 m/s 738 mmHg 83%

    Poimâine, 17 Decembrie, Duminică

    Timp Temperatura Precipitaţii Vânt Presiune Umiditate
    00:00 0°C° 0 mm 5 m/s 739 mmHg 83%
    01:00 0°C° 0 mm 4 m/s 740 mmHg 83%
    02:00 0°C° 0 mm 4 m/s 741 mmHg 84%
    03:00 0°C° 0 mm 4 m/s 742 mmHg 84%
    04:00 0°C° 0 mm 3 m/s 742 mmHg 85%
    05:00 0°C° 0 mm 3 m/s 743 mmHg 85%
    06:00 0°C° 0 mm 3 m/s 743 mmHg 86%
    07:00 -1°C° 0 mm 3 m/s 744 mmHg 86%
    08:00 -1°C° 0 mm 2 m/s 744 mmHg 87%
    09:00 -1°C° 0 mm 2 m/s 745 mmHg 85%
    10:00 +1°C° 0 mm 2 m/s 745 mmHg 82%
    11:00 0°C° 0 mm 3 m/s 746 mmHg 80%
    12:00 0°C° 0 mm 3 m/s 746 mmHg 78%
    13:00 0°C° 0 mm 3 m/s 746 mmHg 77%
    14:00 0°C° 0 mm 3 m/s 746 mmHg 76%
    15:00 +1°C° 0 mm 2 m/s 746 mmHg 78%
    16:00 +1°C° 0 mm 2 m/s 746 mmHg 80%
    17:00 -1°C° 0 mm 2 m/s 746 mmHg 82%
    18:00 -1°C° 0 mm 2 m/s 747 mmHg 83%
    19:00 -1°C° 0 mm 2 m/s 747 mmHg 84%
    20:00 -1°C° 0 mm 2 m/s 747 mmHg 85%
    21:00 -1°C° 0 mm 2 m/s 747 mmHg 86%
    22:00 -1°C° 0 mm 2 m/s 747 mmHg 86%
    23:00 -2°C° 0 mm 2 m/s 747 mmHg 87%

    18 Decembrie, Luni

    Timp Temperatura Precipitaţii Vânt Presiune Umiditate
    00:00 -2°C° 0 mm 3 m/s 747 mmHg 87%
    01:00 -2°C° 0 mm 3 m/s 748 mmHg 87%
    02:00 -4°C° 0 mm 3 m/s 748 mmHg 87%
    03:00 -4°C° 0 mm 3 m/s 748 mmHg 86%
    04:00 -4°C° 0 mm 3 m/s 747 mmHg 86%
    05:00 -4°C° 0 mm 3 m/s 747 mmHg 85%
    06:00 -4°C° 0 mm 3 m/s 747 mmHg 86%
    07:00 -4°C° 0 mm 3 m/s 747 mmHg 87%
    08:00 -4°C° 0 mm 3 m/s 748 mmHg 88%
    09:00 -4°C° 0 mm 3 m/s 748 mmHg 86%
    10:00 -2°C° 0 mm 3 m/s 748 mmHg 83%
    11:00 -2°C° 0 mm 3 m/s 748 mmHg 81%
    12:00 -3°C° 0 mm 4 m/s 748 mmHg 79%
    13:00 -2°C° 0 mm 4 m/s 747 mmHg 77%
    14:00 -2°C° 0 mm 4 m/s 747 mmHg 75%
    15:00 -2°C° 0 mm 3 m/s 747 mmHg 79%
    16:00 -2°C° 0 mm 3 m/s 748 mmHg 82%
    17:00 -4°C° 0 mm 3 m/s 748 mmHg 85%
    18:00 -4°C° 0 mm 3 m/s 748 mmHg 86%
    19:00 -4°C° 0 mm 3 m/s 748 mmHg 86%
    20:00 -4°C° 0 mm 3 m/s 748 mmHg 87%
    21:00 -4°C° 0 mm 3 m/s 749 mmHg 86%
    22:00 -4°C° 0 mm 3 m/s 749 mmHg 86%
    23:00 -4°C° 0 mm 3 m/s 749 mmHg 86%

    19 Decembrie, Marţi

    Timp Temperatura Precipitaţii Vânt Presiune Umiditate
    00:00 -4°C° 0 mm 3 m/s 749 mmHg 85%
    01:00 -4°C° 0 mm 3 m/s 749 mmHg 84%
    02:00 -4°C° 0 mm 3 m/s 749 mmHg 83%
    03:00 -4°C° 0 mm 3 m/s 750 mmHg 82%
    04:00 -4°C° 0 mm 3 m/s 750 mmHg 82%
    05:00 -4°C° 0 mm 3 m/s 750 mmHg 82%
    06:00 -4°C° 0 mm 3 m/s 750 mmHg 82%
    07:00 -4°C° 0 mm 3 m/s 750 mmHg 82%
    08:00 -4°C° 0 mm 3 m/s 751 mmHg 83%
    09:00 -4°C° 0 mm 3 m/s 751 mmHg 81%
    10:00 -4°C° 0 mm 3 m/s 751 mmHg 80%
    11:00 -2°C° 0 mm 3 m/s 752 mmHg 78%
    12:00 -2°C° 0 mm 3 m/s 752 mmHg 77%
    13:00 -2°C° 0 mm 3 m/s 752 mmHg 76%
    14:00 -2°C° 0 mm 3 m/s 752 mmHg 75%
    15:00 -2°C° 0 mm 3 m/s 752 mmHg 76%
    16:00 -4°C° 0 mm 3 m/s 753 mmHg 78%
    17:00 -4°C° 0 mm 3 m/s 753 mmHg 79%
    18:00 -4°C° 0 mm 3 m/s 753 mmHg 79%
    19:00 -4°C° 0 mm 3 m/s 754 mmHg 79%
    20:00 -4°C° 0 mm 3 m/s 754 mmHg 79%
    21:00 -4°C° 0 mm 3 m/s 754 mmHg 78%
    22:00 -4°C° 0 mm 3 m/s 755 mmHg 77%
    23:00 -4°C° 0 mm 3 m/s 755 mmHg 77%

    20 Decembrie, Miercuri

    Timp Temperatura Precipitaţii Vânt Presiune Umiditate
    00:00 -5°C° 0 mm 3 m/s 755 mmHg 76%
    01:00 -5°C° 0 mm 3 m/s 755 mmHg 75%
    02:00 -5°C° 0 mm 3 m/s 756 mmHg 74%
    03:00 -5°C° 0 mm 3 m/s 756 mmHg 73%
    04:00 -5°C° 0 mm 3 m/s 756 mmHg 73%
    05:00 -5°C° 0 mm 3 m/s 756 mmHg 72%
    06:00 -5°C° 0 mm 3 m/s 756 mmHg 72%
    07:00 -5°C° 0 mm 3 m/s 756 mmHg 72%
    08:00 -5°C° 0 mm 3 m/s 757 mmHg 72%
    09:00 -5°C° 0 mm 3 m/s 757 mmHg 71%
    10:00 -5°C° 0 mm 3 m/s 757 mmHg 70%
    11:00 -5°C° 0 mm 3 m/s 757 mmHg 69%
    12:00 -4°C° 0 mm 3 m/s 757 mmHg 69%
    13:00 -4°C° 0 mm 3 m/s 757 mmHg 69%
    14:00 -4°C° 0 mm 3 m/s 757 mmHg 69%
    15:00 -4°C° 0 mm 3 m/s 757 mmHg 71%
    16:00 -4°C° 0 mm 3 m/s 757 mmHg 72%
    17:00 -5°C° 0 mm 3 m/s 757 mmHg 73%
    18:00 -4°C° 0 mm 3 m/s 757 mmHg 73%
    19:00 -3°C° 0 mm 2 m/s 757 mmHg 74%
    20:00 -3°C° 0 mm 2 m/s 757 mmHg 74%
    21:00 -3°C° 0 mm 2 m/s 757 mmHg 77%
    22:00 -3°C° 0 mm 2 m/s 757 mmHg 79%
    23:00 -3°C° 0 mm 2 m/s 757 mmHg 82%
    Arată mai mult